Location: Table Mountain
(47.2500°N, 120.5778°W)
Time: 06:02:15
(UTC-08:00)

Envisat - Pass Details

Date: 10 October 2017
Orbit: 764 x 766 km, 98.2° (Epoch: 14 December)

Event Time Altitude Azimuth Distance (km) Brightness Sun altitude
Exits shadow 21:28:14 35° 242° (WSW) 1,210 4.2 -31.4°
Maximum altitude 21:29:01 38° 263° (W) 1,163 4.2 -31.6°
Drops below altitude 10° 21:33:45 10° 331° (NNW) 2,312 6.1 -32.3°
Sets 21:36:14 0° 340° (NNW) 3,243 6.9 -32.6°
